Location: Boley
(53.1150°N, 8.2269°W)
Time: 11:45:00
(UTC+00:00)

Cosmos 2228 - Pass Details

Date: 15 May 2026
Orbit: 562 x 587 km, 82.5° (Epoch: 9 June)

Event Time Altitude Azimuth Distance (km) Brightness Sun altitude
Rises 21:17:03 0° 196° (SSW) 2,756 6.1 -6.8°
Reaches altitude 10° 21:19:14 10° 199° (SSW) 1,861 5.3 -7.0°
Maximum altitude 21:23:19 68° 282° (WNW) 613 3.3 -7.5°
Drops below altitude 10° 21:27:26 10° 7° (N) 1,869 6.1 -7.9°
Sets 21:29:38 0° 10° (N) 2,770 7.0 -8.1°
